[[{"header":{"parameterUnit":"m.s-1","parameterCategory":1,"la1":30.2991,"la2":30.254,"lo1":-89.0895,"lo2":-89.0444,"dy":0.0017,"dx":0.0017,"nx":28,"ny":28,"refTime":"2026-01-31T03:00:00:Z","depth":0,"parameterNumber":2,"parameterNumberName":"U-component_of_WINDS"},"data":[0,0,0,0,0,0,0,0,0,0,0,0,0,0,0,0,0,0,0,0,0,0,0,0,0,0,0,0,0,0,0,0,0,0,0,0,0,0,0,0,0,0,0,0,0,0,0,0,0,0,0,0,0,0,0,0,0,0,3.5872,3.5872,0,3.5897,3.5897,3.5897,3.5856,3.5855,3.5854,3.5852,3.5876,3.5878,3.588,0,0,0,0,0,0,0,0,0,0,0,0,0,3.5789,3.579,3.5872,3.5872,3.5872,3.5897,3.5897,3.5897,3.5857,3.5855,3.5853,3.5852,3.5875,3.5878,3.588,0,0,0,0,0,0,0,0,0,0,0,0,0,3.582,3.5791,3.5872,3.5855,3.5854,3.5897,3.5897,3.5897,3.5857,3.5855,3.5853,3.5851,3.5875,3.5877,3.588,3.594,0,0,3.5889,3.589,0,0,0,0,0,0,0,0,3.5819,3.5823,3.5857,3.5856,3.5855,3.5871,3.5876,3.5912,3.5858,3.5856,3.5852,3.585,3.5876,3.5879,3.5888,3.5941,3.5942,3.5889,3.5891,3.5892,3.5893,0,0,0,0,0,0,0,3.5816,3.5822,3.5882,3.5858,3.5856,3.5846,3.5848,3.5883,3.5877,3.5856,3.5853,3.5857,3.5875,3.5885,3.5888,3.5942,3.5889,3.5892,3.5893,3.5895,3.6047,3.6049,0,0,0,0,0,0,3.5816,3.5821,3.5881,3.5882,3.5831,3.585,3.5852,3.5868,3.5877,3.5876,3.5858,3.5855,3.5881,3.5885,3.5889,3.596,3.5892,3.5895,3.5897,3.6044,3.6047,3.605,0,0,0,0,0,0,3.5815,3.5822,3.588,3.5851,3.5857,3.5853,3.5872,3.587,3.588,3.5879,3.5877,3.587,3.588,3.5885,3.5928,3.596,3.5896,3.5899,3.6042,3.6045,3.6048,3.6101,0,0,0,0,0,0,3.5813,3.5822,3.5844,3.5852,3.5859,3.5919,3.5874,3.5872,3.5885,3.5881,3.5889,3.5888,3.5878,3.5924,3.5931,3.5963,3.5901,3.6039,3.6043,3.6047,3.6097,3.6106,3.6114,0,0,0,0,0,3.581,3.5857,3.5846,3.5853,3.5887,3.5921,3.5925,3.5913,3.5888,3.5911,3.591,3.5888,3.5956,3.5928,3.5936,3.5969,3.6037,3.6042,3.6047,3.6093,3.6104,3.6114,0,0,0,0,0,0,3.5853,3.5858,3.5845,3.5896,3.5909,3.5914,3.5941,3.5925,3.5944,3.5939,3.5923,3.5925,3.5972,3.5975,3.5945,3.6028,3.5992,3.5999,3.6024,3.6035,3.6044,3.6042,3.5903,0,0,0,0,0,3.5869,3.5896,3.5899,3.5944,3.5951,3.5946,3.5959,3.595,3.5961,3.5966,3.5968,3.598,3.6004,3.602,3.6042,3.6098,3.6099,3.6124,3.6133,3.614,3.6146,3.6177,3.6189,3.6067,3.6067,3.6067,0,0,3.59,3.5907,3.5925,3.5953,3.5961,3.5989,3.595,3.5981,3.6002,3.597,3.6011,3.6014,3.6026,3.6076,3.6098,3.608,3.6181,3.6147,3.6153,3.6155,3.6184,3.6195,3.6205,3.607,3.607,3.6069,0,0,3.5974,3.5981,3.602,3.603,3.6043,3.604,3.605,3.6058,3.6059,3.61,3.6077,3.6102,3.6143,3.6153,3.6164,3.6244,3.6224,3.6251,3.6297,3.6327,3.6337,3.6345,3.6374,3.6384,3.6257,3.6257,3.6258,0,3.6011,3.6054,3.6042,3.6076,3.6089,3.6063,3.6103,3.6113,3.6132,3.6142,3.6122,3.6174,3.618,3.6233,3.6253,3.6262,3.6273,3.6249,3.6336,3.6345,3.6352,3.638,3.639,3.6261,3.626,3.626,3.626,0,3.61,3.613,3.616,3.6181,3.6198,3.6234,3.6228,3.6247,3.6236,3.6235,3.6278,3.6285,3.6309,3.6321,3.631,3.6373,3.6361,3.6339,3.6302,3.6367,3.6393,3.6403,3.6265,3.6264,3.6263,3.6262,0,0,3.6199,3.6215,3.6226,3.6236,3.625,3.6273,3.6309,3.6333,3.6349,3.6364,3.6394,3.6431,3.6411,3.6423,3.6414,3.6441,3.6504,3.6415,3.6416,3.6432,3.6574,3.659,3.6603,3.6492,3.6494,3.6496,3.6573,0,3.6272,3.6334,3.6326,3.6385,3.6413,3.6391,3.6422,3.6434,3.6435,3.6459,3.6459,3.6485,3.6457,3.6465,3.649,3.6491,3.6533,3.6486,3.6519,3.6521,3.6516,3.6616,3.6632,3.6705,3.6583,3.6585,3.6586,0,3.6364,3.6385,3.6448,3.6459,3.6471,3.6499,3.6521,3.6544,3.6558,3.6557,3.6572,3.6558,3.6594,3.6558,3.6608,3.6576,3.659,3.6593,3.6596,3.6597,3.6557,3.662,3.6728,3.6738,3.6601,3.66,3.6599,0,3.643,3.6473,3.6517,3.6526,3.654,3.6561,3.6568,3.658,3.6596,3.6615,3.6625,3.6649,3.6661,3.668,3.6673,3.6647,3.6725,3.6687,3.6724,3.6725,3.674,3.6739,3.6851,3.6751,3.675,3.675,3.675,0,3.6512,3.6551,3.6547,3.6573,3.6617,3.6608,3.6651,3.6656,3.6667,3.6694,3.6676,3.6702,3.6692,3.6717,3.6712,3.6755,3.6761,3.6761,3.6759,3.6762,3.6762,3.677,3.6764,3.6753,3.6752,3.6752,3.6751,0,3.6592,3.659,3.6637,3.6648,3.6651,3.6683,3.6693,3.6718,3.6718,3.6753,3.676,3.6761,3.679,3.6786,3.6817,3.6814,3.6867,3.6859,3.6863,3.6861,3.6898,3.6894,3.7018,3.7034,3.6924,3.6925,3.6925,0,3.6644,3.6674,3.6689,3.6707,3.6716,3.6744,3.676,3.6753,3.677,3.679,3.6813,3.6841,3.6863,3.6911,3.6913,3.6938,3.6931,3.6972,3.6934,3.6937,3.6931,3.6929,3.6932,3.698,3.6981,3.6982,3.6983,0,3.6736,3.6735,3.6759,3.6785,3.6805,3.6824,3.6842,3.6857,3.6851,3.6872,3.6903,3.692,3.6954,3.6982,3.7006,3.7012,3.6997,3.6995,3.7005,3.7008,3.7009,3.7009,3.6883,3.6992,3.6991,3.699,3.699,3.6989,3.6804,3.683,3.6845,3.6874,3.6887,3.6904,3.6929,3.6933,3.6958,3.6986,3.698,3.7014,3.7029,3.706,3.707,3.7096,3.7081,3.7095,3.7098,3.7102,3.7106,3.7006,3.7101,3.71,3.71,3.71,3.71,0,3.6895,3.6905,3.6931,3.6957,3.698,3.6965,3.6984,3.7004,3.7034,3.705,3.7072,3.7108,3.7136,3.7142,3.7168,3.7189,3.7182,3.7196,3.7194,3.7196,3.7119,3.7107,3.7201,3.7201,3.7201,3.7201,3.7201,3.7201,3.6945,3.6989,3.699,3.7041,3.7049,3.7084,3.7096,3.7112,3.7124,3.7165,3.7189,3.7193,3.7205,3.7233,3.7257,3.7259,3.7269,3.7285,3.7284,3.7211,3.7201,3.7191,3.7181,3.7288,3.7288,3.7358,3.7359,3.736]},{"header":{"parameterUnit":"m.s-1","parameterCategory":1,"la1":30.2991,"la2":30.254,"lo1":-89.0895,"lo2":-89.0444,"dy":0.0017,"dx":0.0017,"nx":28,"ny":28,"refTime":"2026-01-31T03:00:00:Z","depth":0,"parameterNumber":3,"parameterNumberName":"V-component_of_WINDS"},"data":[0,0,0,0,0,0,0,0,0,0,0,0,0,0,0,0,0,0,0,0,0,0,0,0,0,0,0,0,0,0,0,0,0,0,0,0,0,0,0,0,0,0,0,0,0,0,0,0,0,0,0,0,0,0,0,0,0,0,-8.393,-8.3932,0,-8.4144,-8.4146,-8.4148,-8.41,-8.4096,-8.4092,-8.4089,-8.4301,-8.431,-8.432,0,0,0,0,0,0,0,0,0,0,0,0,0,-8.3475,-8.3483,-8.3929,-8.3932,-8.3935,-8.4143,-8.4146,-8.4149,-8.4101,-8.4096,-8.4091,-8.4087,-8.4298,-8.4309,-8.432,0,0,0,0,0,0,0,0,0,0,0,0,0,-8.3679,-8.3486,-8.3929,-8.3936,-8.3939,-8.4143,-8.4146,-8.415,-8.4102,-8.4096,-8.409,-8.4084,-8.4294,-8.4308,-8.4322,-8.453,0,0,-8.4365,-8.4371,0,0,0,0,0,0,0,0,-8.3667,-8.3695,-8.3932,-8.3936,-8.394,-8.4089,-8.4064,-8.4277,-8.4104,-8.404,-8.4088,-8.4082,-8.4235,-8.4254,-8.4307,-8.454,-8.4549,-8.4366,-8.4375,-8.4381,-8.4385,0,0,0,0,0,0,0,-8.3653,-8.3686,-8.4014,-8.3936,-8.394,-8.3927,-8.395,-8.4104,-8.4168,-8.4045,-8.4042,-8.4068,-8.4236,-8.4293,-8.4311,-8.4552,-8.4366,-8.4379,-8.4387,-8.4393,-8.4967,-8.4973,0,0,0,0,0,0,-8.3637,-8.3674,-8.4007,-8.402,-8.3786,-8.394,-8.3965,-8.4047,-8.4167,-8.4179,-8.4073,-8.4065,-8.4272,-8.4295,-8.4319,-8.4571,-8.4381,-8.4394,-8.4402,-8.496,-8.4968,-8.4976,0,0,0,0,0,0,-8.3627,-8.3667,-8.3998,-8.3847,-8.3888,-8.3955,-8.4047,-8.4055,-8.4112,-8.4188,-8.4199,-8.4121,-8.4268,-8.4299,-8.4478,-8.4577,-8.44,-8.4413,-8.4952,-8.4963,-8.4972,-8.5076,0,0,0,0,0,0,-8.3614,-8.3664,-8.3744,-8.3849,-8.3896,-8.4156,-8.4053,-8.4063,-8.4137,-8.4129,-8.4235,-8.4247,-8.4266,-8.4458,-8.4492,-8.4594,-8.4424,-8.4943,-8.4957,-8.4969,-8.5064,-8.5088,-8.5109,0,0,0,0,0,-8.3598,-8.3763,-8.3749,-8.3789,-8.3999,-8.4162,-8.4189,-8.4209,-8.4146,-8.4227,-8.4276,-8.4244,-8.4561,-8.4476,-8.4515,-8.4622,-8.4937,-8.4953,-8.4968,-8.5054,-8.5084,-8.5109,0,0,0,0,0,0,-8.3666,-8.3777,-8.3762,-8.3966,-8.4056,-8.4154,-8.4256,-8.424,-8.4347,-8.4335,-8.4353,-8.4377,-8.4561,-8.4609,-8.4513,-8.483,-8.474,-8.4764,-8.4792,-8.4821,-8.4843,-8.4827,-8.4436,0,0,0,0,0,-8.3705,-8.383,-8.392,-8.4091,-8.4137,-8.4189,-8.4261,-8.4269,-8.4361,-8.4398,-8.446,-8.4549,-8.4669,-8.4747,-8.4862,-8.5071,-8.5093,-8.5163,-8.5186,-8.5204,-8.5224,-8.5339,-8.5372,-8.5026,-8.5026,-8.5025,0,0,-8.3786,-8.3862,-8.3939,-8.4107,-8.4177,-8.4305,-8.4221,-8.4359,-8.4454,-8.4418,-8.4593,-8.4642,-8.4742,-8.4938,-8.5027,-8.4984,-8.5325,-8.5224,-8.5238,-8.5248,-8.5359,-8.5391,-8.542,-8.5036,-8.5034,-8.5033,0,0,-8.3999,-8.407,-8.4221,-8.4294,-8.4402,-8.4436,-8.4473,-8.4575,-8.4607,-8.4782,-8.4759,-8.487,-8.5076,-8.515,-8.5214,-8.5457,-8.5432,-8.5494,-8.5612,-8.5724,-8.5751,-8.5776,-8.5863,-8.5894,-8.5514,-8.5514,-8.5514,0,-8.4086,-8.428,-8.43,-8.4443,-8.4517,-8.4493,-8.4646,-8.4715,-8.4854,-8.4905,-8.4855,-8.5115,-8.518,-8.5393,-8.5453,-8.5506,-8.5547,-8.5482,-8.5746,-8.5771,-8.5794,-8.5877,-8.591,-8.5521,-8.552,-8.5519,-8.5519,0,-8.4381,-8.4516,-8.4625,-8.4763,-8.4849,-8.4996,-8.5038,-8.5123,-8.5124,-8.5163,-8.5342,-8.5421,-8.5551,-8.5602,-8.5603,-8.5816,-8.5786,-8.5742,-8.5651,-8.5833,-8.5912,-8.5944,-8.5531,-8.5528,-8.5526,-8.5524,0,0,-8.4641,-8.4792,-8.4831,-8.4894,-8.5013,-8.5117,-8.5262,-8.5392,-8.5465,-8.5562,-8.5684,-8.586,-8.582,-8.5893,-8.5902,-8.6,-8.619,-8.5944,-8.5946,-8.5987,-8.6429,-8.6463,-8.6499,-8.6174,-8.618,-8.6185,-8.6421,0,-8.4866,-8.5125,-8.5149,-8.5381,-8.5506,-8.5486,-8.5613,-8.5698,-8.5739,-8.585,-8.5893,-8.6019,-8.5956,-8.6,-8.6097,-8.6146,-8.6278,-8.6129,-8.6286,-8.6292,-8.6262,-8.654,-8.6576,-8.6795,-8.6452,-8.6457,-8.6461,0,-8.5162,-8.5272,-8.5517,-8.562,-8.5673,-8.5787,-8.5909,-8.6015,-8.6112,-8.6135,-8.6218,-8.6215,-8.6363,-8.6268,-8.6473,-8.6371,-8.6436,-8.6471,-8.648,-8.6495,-8.6387,-8.6563,-8.6865,-8.6898,-8.6509,-8.6506,-8.6502,0,-8.5329,-8.5537,-8.5711,-8.5765,-8.5889,-8.597,-8.6025,-8.6116,-8.6194,-8.63,-8.635,-8.6471,-8.6538,-8.6631,-8.666,-8.6588,-8.6864,-8.6771,-8.6886,-8.6886,-8.6945,-8.6941,-8.7262,-8.6987,-8.6987,-8.6986,-8.6985,0,-8.5577,-8.5728,-8.5788,-8.5895,-8.6063,-8.6089,-8.6254,-8.6304,-8.6386,-8.6502,-8.6491,-8.6599,-8.6631,-8.6745,-8.6768,-8.6934,-8.6964,-8.6986,-8.699,-8.6987,-8.6985,-8.703,-8.7016,-8.6995,-8.6993,-8.6991,-8.699,0,-8.5791,-8.5837,-8.6026,-8.6129,-8.6159,-8.6278,-8.6366,-8.6468,-8.6508,-8.6655,-8.669,-8.6752,-8.6885,-8.6924,-8.7083,-8.7099,-8.7295,-8.7285,-8.7263,-8.7263,-8.7376,-8.7365,-8.7738,-8.7788,-8.748,-8.7483,-8.7486,0,-8.5947,-8.6063,-8.618,-8.6258,-8.6317,-8.6443,-8.6522,-8.6552,-8.6635,-8.6756,-8.6844,-8.6976,-8.7084,-8.7298,-8.7355,-8.7477,-8.7471,-8.7593,-8.7489,-8.7483,-8.7473,-8.7466,-8.7478,-8.7612,-8.7616,-8.7618,-8.762,0,-8.6219,-8.6236,-8.6353,-8.6479,-8.6575,-8.6675,-8.677,-8.6834,-8.6877,-8.6971,-8.7109,-8.7193,-8.7358,-8.7489,-8.7613,-8.7668,-8.7652,-8.7653,-8.7686,-8.7684,-8.7667,-8.7679,-8.7317,-8.7644,-8.7642,-8.764,-8.7639,-8.7638,-8.6409,-8.6512,-8.6611,-8.6741,-8.6817,-8.6907,-8.701,-8.7063,-8.718,-8.7318,-8.7328,-8.7477,-8.7571,-8.7737,-8.7799,-8.7915,-8.7879,-8.7927,-8.7939,-8.795,-8.796,-8.7649,-8.7937,-8.7937,-8.7936,-8.7936,-8.7935,0,-8.668,-8.6744,-8.6864,-8.7,-8.7103,-8.7081,-8.7186,-8.7273,-8.7406,-8.7496,-8.7604,-8.7762,-8.789,-8.7959,-8.8087,-8.8166,-8.8162,-8.8199,-8.8193,-8.8206,-8.7985,-8.7944,-8.82,-8.82,-8.82,-8.82,-8.82,-8.82,-8.6834,-8.7007,-8.7037,-8.7248,-8.7309,-8.7458,-8.752,-8.7603,-8.7676,-8.7855,-8.7962,-8.8007,-8.8089,-8.8223,-8.8339,-8.8356,-8.8403,-8.8444,-8.8457,-8.8249,-8.8222,-8.8196,-8.8157,-8.8454,-8.8455,-8.8668,-8.867,-8.8672]}]]